Probability
0 0 0 0 1 2 2 1 0 4 15 23 23 19 19 24 31 38 43 47 53 61 62 57 53 51 50 51 53 54 54 56 64 70 73 74 73 72 75 77 77 75 73 75
1 1 1 0 1 1 1 0 1 9 27 38 36 31 29 31 36 43 48 50 54 61 64 61 58 57 55 55 54 53 51 53 56 61 62 63 64 68 72 75 77 76 74 74
5 3 2 1 1 1 1 1 5 20 44 58 57 51 46 43 45 48 51 50 50 56 61 61 60 59 56 53 51 50 47 46 47 48 49 51 54 60 64 67 70 71 71 72
8 4 2 3 3 3 4 5 15 38 61 73 72 63 53 46 43 43 42 40 39 42 46 48 48 47 43 38 38 38 36 35 34 34 36 41 46 50 52 54 57 58 60 63
9 5 4 5 6 6 7 12 27 53 72 72 63 52 41 33 29 27 26 25 25 25 26 27 29 28 25 21 20 20 19 19 19 20 23 27 32 35 36 38 41 43 45 46
9 6 6 7 7 7 11 19 36 55 64 55 41 32 24 19 16 15 13 13 12 11 10 12 13 14 13 10 8 7 6 7 9 11 13 15 17 20 22 25 28 30 30 31
10 8 10 11 9 10 16 26 38 51 53 43 34 26 19 13 10 8 6 5 5 4 4 5 6 6 5 4 3 1 1 2 4 7 8 9 11 12 15 16 18 20 21 20
17 16 20 20 16 16 21 28 41 52 53 45 34 23 16 10 6 4 2 2 2 2 2 3 3 2 1 1 1 0 0 0 1 3 4 5 6 8 10 10 11 13 14 14
23 24 26 24 18 16 19 29 43 55 55 43 26 16 10 6 3 1 1 1 1 1 1 1 1 0 0 0 0 0 0 0 0 0 1 1 2 3 4 4 5 6 7 7
17 19 20 17 14 13 18 28 39 47 44 30 17 11 6 2 1 0 0 0 0 0 0 0 0 0 0 0 0 0 0 0 0 0 0 0 0 1 1 1 1 1 1 1
7 9 10 10 11 13 19 26 32 34 27 17 10 6 2 0 0 0 0 0 0 0 0 0 0 0 0 0 0 0 0 0 0 0 0 0 0 0 0 0 0 0 0 0
3 4 7 11 13 15 18 22 25 22 14 7 4 1 0 0 0 0 0 0 0 0 0 0 0 0 0 0 0 0 0 0 0 0 0 0 0 0 0 0 0 0 0 0
2 4 9 14 16 15 15 16 15 11 6 3 1 0 0 0 0 0 0 0 0 0 0 0 0 0 0 0 0 0 0 0 0 0 0 0 0 0 0 0 0 0 0 0
3 4 9 12 13 11 10 8 6 4 2 1 0 0 0 0 0 0 0 0 0 0 0 0 0 0 0 0 0 0 0 0 0 0 0 0 0 0 0 0 0 0 0 0
2 4 6 7 6 5 4 3 2 1 0 0 0 0 0 0 0 0 0 0 0 0 0 0 0 0 0 0 0 0 0 0 0 0 0 0 0 0 0 0 0 0 0 0
1 2 3 3 2 1 1 1 0 0 0 0 0 0 0 0 0 0 0 0 0 0 0 0 0 0 0 0 0 0 0 0 0 0 0 0 0 0 0 0 0 0 0 0
1 1 1 1 0 0 0 0 0 0 0 0 0 0 0 0 0 0 0 0 0 0 0 0 0 0 0 0 0 0 0 0 0 0 0 0 0 0 0 0 0 0 0 0
2 1 0 0 0 0 0 0 0 0 0 0 0 0 0 0 0 0 0 0 0 0 0 0 0 0 0 0 0 0 0 0 0 0 0 0 0 0 0 0 0 0 0 0
1 1 0 0 0 0 0 0 0 0 0 0 0 0 0 0 0 0 0 0 0 0 0 0 0 0 0 0 0 0 0 0 0 0 0 0 0 0 0 0 0 0 0 0
0 0 0 0 0 0 0 0 0 0 0 0 0 0 0 0 0 0 0 0 0 0 0 0 0 0 0 0 0 0 0 0 0 0 0 0 0 0 0 0 0 0 0 0
0 0 0 0 0 0 0 0 0 0 0 0 0 0 0 0 0 0 0 0 0 0 0 0 0 0 0 0 0 0 0 0 0 0 0 0 0 0 0 0 0 0 0 0
0 0 0 0 0 0 0 0 0 0 0 0 0 0 0 0 0 0 0 0 0 0 0 0 0 0 0 0 0 0 0 0 0 0 0 0 0 0 0 0 0 0 0 0
0 0 0 0 0 0 0 0 0 0 0 0 0 0 0 0 0 0 0 0 0 0 0 0 0 0 0 0 0 0 0 0 0 0 0 0 0 0 0 0 0 0 0 0
0 0 0 0 0 0 0 0 0 0 0 0 0 0 0 0 0 0 0 0 0 0 0 0 0 0 0 0 0 0 0 0 0 0 0 0 0 0 0 0 0 0 0 0
0 0 0 0 0 0 0 0 0 0 0 0 0 0 0 0 0 0 0 0 0 0 0 0 0 0 0 0 0 0 0 0 0 0 0 0 0 0 0 0 0 0 0 0
0 0 0 0 0 0 0 0 0 0 0 0 0 0 0 0 0 0 0 0 0 0 0 0 0 0 0 0 0 0 0 0 0 0 0 0 0 0 0 0 0 0 0 0
0 0 0 0 0 0 0 0 0 0 0 0 0 0 0 0 0 0 0 0 0 0 0 0 0 0 0 0 0 0 0 0 0 0 0 0 0 0 0 0 0 0 0 0
Wind_Speed
15 9 10 12 16 15 12 10 8 4 7 10 7 6 5 7 7 7 7 7 7 7 6 5 5 5 5 4 3 3 4 4 4 5 5 5 5 5 5 5 7 6 6 6
14 13 13 15 18 15 13 10 8 3 9 12 11 9 8 9 9 9 9 9 9 9 8 7 6 6 6 5 5 6 5 4 3 2 1 0 2 2 3 4 4 4 5 5
12 13 12 15 12 10 10 8 5 3 11 14 12 10 10 10 11 11 11 12 12 11 11 10 10 9 9 8 8 8 8 8 7 6 5 4 3 3 1 2 2 3 3 4
12 10 12 7 4 3 4 4 5 10 14 15 16 14 13 13 13 14 13 13 12 11 12 11 11 11 11 11 11 10 10 9 9 8 8 6 6 5 5 4 3 3 3 3
11 10 10 5 5 5 2 1 7 15 18 19 18 17 14 14 14 14 14 13 12 13 13 12 12 11 11 11 11 11 10 9 8 8 7 7 7 6 5 5 4 4 3 4
10 9 7 2 2 3 4 1 6 15 18 19 17 11 11 13 15 15 14 12 12 13 13 12 11 11 11 11 11 10 9 8 7 6 6 6 6 5 4 4 4 4 4 3
13 8 1 4 3 4 3 3 7 13 15 15 10 12 15 16 15 14 14 13 13 12 11 10 10 10 11 10 9 8 7 7 6 5 4 4 4 3 4 3 3 4 4 4
5 3 1 3 0 1 2 3 7 13 15 16 20 21 18 17 15 14 13 13 12 11 10 9 8 9 9 8 7 6 6 5 5 5 5 5 4 3 3 4 4 4 3 3
2 2 3 2 3 1 1 6 10 15 20 22 21 20 18 16 14 13 12 11 10 10 9 8 7 7 7 6 4 4 4 3 3 3 2 2 3 4 4 3 3 4 4 4
1 2 2 2 1 1 5 9 12 18 20 21 21 19 17 14 13 11 10 9 8 8 8 7 6 6 5 4 4 4 4 4 3 3 2 2 2 3 3 3 3 3 4 5
2 2 1 2 2 4 8 11 16 18 19 20 20 18 16 13 11 10 8 7 7 6 6 6 5 5 5 5 5 5 5 5 6 5 3 3 3 3 3 2 2 2 3 4
2 1 3 5 7 9 12 15 17 18 19 18 17 17 15 12 10 8 8 7 6 5 5 4 4 4 4 4 4 5 6 6 6 6 5 4 4 4 4 4 3 5 5 5
4 3 7 10 12 14 16 17 18 18 18 17 16 15 13 11 8 7 7 5 4 3 3 3 3 4 4 3 3 4 5 6 6 6 6 6 6 6 5 4 3 4 5 6
6 8 12 14 15 16 18 19 19 18 17 15 13 12 11 9 8 6 5 4 3 2 2 2 3 4 4 4 4 5 7 7 5 4 6 6 6 6 6 7 7 5 4 5
8 11 14 15 15 16 16 17 17 16 15 13 11 9 9 8 7 5 4 3 2 1 3 4 4 4 4 5 6 7 7 6 5 5 7 6 6 7 7 8 8 7 7 6
12 15 15 16 16 15 15 15 14 13 12 10 9 7 7 6 5 4 3 1 1 2 4 4 4 4 4 5 6 6 5 4 5 6 7 6 7 7 7 7 8 8 8 8
13 14 14 15 15 15 14 13 12 11 10 8 7 5 5 5 4 3 3 3 3 3 4 5 5 5 5 6 7 7 8 7 7 6 6 7 7 8 8 7 8 8 8 8
14 14 14 13 13 14 13 12 10 9 7 6 5 5 4 4 4 3 3 3 3 4 6 7 6 4 5 7 6 7 7 7 6 7 7 6 7 7 7 7 8 9 9 9
16 16 15 14 13 11 9 8 7 7 6 5 5 4 4 3 2 2 2 2 3 4 6 6 3 3 5 8 7 6 6 7 7 7 7 7 7 7 7 8 8 8 9 9
15 14 14 12 11 9 7 6 6 6 5 5 4 3 3 3 3 3 4 5 6 5 5 5 4 6 7 8 9 7 6 7 8 7 7 7 7 7 7 8 8 8 8 8
13 12 11 10 9 8 7 6 5 5 5 4 3 3 3 3 3 2 2 5 6 6 4 4 6 6 7 8 9 5 6 7 7 6 7 7 7 7 7 8 8 8 8 8
10 9 8 7 6 5 4 4 4 5 4 4 4 3 3 2 3 5 7 5 6 5 4 6 7 7 9 10 5 6 7 6 6 6 6 6 6 7 7 8 8 8 8 8
7 5 4 3 3 3 3 3 4 3 3 3 3 4 4 4 3 3 5 6 6 6 6 7 6 7 10 6 5 6 6 6 6 6 6 6 6 6 6 7 7 7 7 8
4 3 2 2 2 1 2 2 2 2 3 3 3 3 2 3 5 6 7 7 6 5 5 4 3 6 7 3 5 5 5 5 6 6 6 6 6 6 7 7 8 8 8 10
2 1 1 2 2 2 2 1 2 2 2 2 4 5 5 5 5 6 6 6 5 2 4 4 2 5 4 4 5 5 4 5 5 6 6 6 7 7 7 7 8 8 8 8
1 1 2 2 3 3 3 2 2 2 2 3 3 4 5 5 6 5 3 4 4 2 1 2 2 2 2 4 5 5 5 5 5 5 7 6 8 8 8 8 10 8 9 9
2 1 1 1 1 2 2 2 2 3 3 3 3 4 4 4 4 4 3 3 2 2 2 2 3 3 5 5 5 5 5 6 6 7 7 7 8 8 9 11 9 9 10 10
Wind_Direction
246 214 193 220 238 244 241 251 261 213 156 148 150 157 134 110 102 100 102 100 100 103 110 113 118 124 127 128 125 138 140 157 174 188 199 209 215 218 216 217 221 219 220 219
251 229 213 224 224 222 226 236 247 185 123 126 130 120 113 106 102 93 86 80 78 74 74 74 79 89 93 87 79 78 78 70 63 72 82 237 249 242 230 228 234 227 225 227
261 252 240 238 236 228 227 228 234 169 132 126 117 113 106 98 96 94 86 75 72 71 67 62 58 58 64 64 65 63 57 49 41 41 38 36 15 358 330 280 257 250 251 246
258 246 246 253 265 280 251 193 133 119 127 121 111 97 87 89 92 88 85 82 78 74 68 63 62 66 67 66 62 62 57 49 42 38 33 32 34 19 9 358 345 320 287 271
256 241 243 249 11 359 358 230 129 123 119 117 114 105 91 90 92 90 86 82 78 76 72 64 60 62 65 64 64 62 56 50 45 42 38 32 30 21 17 8 353 330 336 330
242 239 237 188 33 346 40 312 117 128 134 137 144 126 116 108 102 97 92 87 84 80 75 70 64 64 67 62 58 54 49 46 42 37 40 39 27 14 6 356 345 340 340 335
232 236 97 68 174 180 180 146 120 132 141 150 144 116 122 115 106 101 96 90 85 81 75 70 68 68 68 65 58 52 47 41 34 23 22 44 28 1 346 343 330 313 305 304
243 246 83 2 343 151 119 119 122 123 125 117 111 115 118 115 112 108 102 96 90 84 78 71 68 72 71 62 54 49 45 38 25 14 6 16 1 341 323 314 311 311 323 330
13 78 62 30 67 355 114 96 104 113 117 120 121 122 121 118 114 107 102 99 98 96 91 83 75 71 72 65 52 47 37 21 360 339 324 337 334 324 320 329 339 353 358 351
46 39 23 13 54 84 86 94 109 116 122 123 122 122 120 114 109 105 101 98 96 95 95 90 82 74 71 57 33 22 12 349 316 295 300 331 318 312 329 339 345 348 340 331
127 125 106 350 46 71 91 101 107 112 116 118 120 118 115 111 109 104 98 92 88 86 88 90 83 70 59 48 24 2 346 334 320 318 327 308 289 291 295 291 279 276 303 310
90 183 133 112 102 105 101 101 105 108 109 111 113 114 112 107 103 101 98 91 85 80 77 81 85 81 69 50 22 355 342 338 331 330 336 330 322 319 301 282 248 236 252 277
86 101 104 102 97 98 99 100 102 104 106 107 106 107 108 108 109 107 105 100 94 88 86 80 76 79 67 44 12 348 326 315 317 324 329 329 326 323 321 314 267 249 260 276
73 93 99 99 98 99 101 102 102 101 101 103 106 108 110 110 107 103 96 91 84 74 78 72 65 64 40 15 358 339 319 314 318 329 331 322 320 326 330 335 336 337 315 304
77 97 102 102 101 102 104 106 105 104 103 104 106 107 107 107 105 100 94 86 73 36 61 56 51 49 31 5 356 333 318 319 337 334 317 317 334 339 338 340 338 336 336 338
94 100 105 106 105 105 106 105 104 105 105 103 99 97 99 101 96 90 85 74 58 43 50 52 41 29 21 8 348 322 315 323 328 322 319 336 346 342 339 339 337 337 336 340
106 107 108 106 106 106 104 102 102 102 100 98 97 99 97 93 90 82 51 36 48 66 67 60 43 21 14 19 355 332 329 330 331 331 347 357 351 343 341 342 340 337 335 344
98 98 98 100 99 95 92 92 95 95 91 89 90 84 74 65 54 52 27 22 61 78 70 61 39 2 25 35 359 329 319 331 346 351 356 6 351 342 347 346 341 340 338 337
92 93 93 92 94 94 96 97 98 94 89 83 76 69 65 61 48 26 29 41 60 78 68 60 24 5 32 38 354 314 330 347 356 3 0 359 353 356 352 346 343 341 337 336
93 93 93 94 93 93 94 91 87 81 75 70 64 63 57 44 34 35 54 64 63 62 63 48 25 30 19 20 344 329 357 10 8 2 0 358 353 350 348 345 342 340 338 336
88 89 89 87 82 77 71 68 71 73 70 64 59 56 44 29 30 36 72 90 76 45 46 69 47 29 18 350 319 345 22 21 9 5 1 355 349 348 348 346 343 343 340 338
80 78 75 75 76 76 69 64 68 65 59 47 35 35 28 27 68 78 73 74 79 34 38 56 46 30 357 334 346 17 27 19 8 3 359 355 352 350 348 346 344 343 340 338
77 74 70 68 63 62 63 60 61 58 51 47 35 26 24 28 36 85 92 73 73 53 56 56 30 3 340 340 13 22 25 20 10 359 357 356 353 348 344 342 341 338 336 336
76 53 31 29 26 27 51 50 46 51 60 66 62 56 47 75 78 81 95 94 74 68 79 80 8 336 316 350 24 25 24 18 9 359 359 358 352 349 349 346 344 344 342 342
85 32 349 347 339 24 54 59 73 80 71 72 74 73 67 71 82 88 94 97 107 119 119 135 238 294 318 34 35 21 23 26 7 354 3 1 356 354 355 350 348 347 345 346
45 349 37 2 11 358 353 20 38 55 58 66 75 90 92 93 98 106 113 112 114 131 112 136 159 230 34 46 42 25 22 27 15 10 9 3 360 357 357 354 354 357 353 354
213 203 205 314 26 19 9 14 27 46 60 72 79 90 96 97 100 105 110 114 113 96 72 57 49 49 49 45 38 29 29 27 23 14 11 14 10 2 4 4 5 4 360 357